• In Hungary
  • List of Countries
  • For 7 days
  • Water Temperature
  • Satellite Maps
  • Weather Map
  • News
  • Weather Widgets
  • user-avatar
    Login

    Hourly Weather Sprowa

    Today, 21 October, Sunday

    Time Temperature Precipitation Wind Pressure Humidity
    00:00 +6°C° 0.1 mm 4 mps 744 mmHg 82%
    01:00 +7°C° 0.1 mm 3 mps 744 mmHg 86%
    02:00 +7°C° 0.1 mm 3 mps 744 mmHg 88%
    03:00 +7°C° 0.1 mm 3 mps 744 mmHg 89%
    04:00 +5°C° 0.1 mm 3 mps 744 mmHg 91%
    05:00 +7°C° 0.1 mm 3 mps 744 mmHg 90%
    06:00 +6°C° 0.1 mm 4 mps 744 mmHg 89%
    07:00 +5°C° 0 mm 3 mps 745 mmHg 89%
    08:00 +7°C° 0 mm 3 mps 745 mmHg 84%
    09:00 +8°C° 0 mm 3 mps 746 mmHg 79%
    10:00 +9°C° 0 mm 3 mps 746 mmHg 75%
    11:00 +10°C° 0 mm 3 mps 746 mmHg 70%
    12:00 +11°C° 0 mm 3 mps 746 mmHg 65%
    13:00 +13°C° 0 mm 2 mps 746 mmHg 60%
    14:00 +12°C° 0 mm 2 mps 746 mmHg 61%
    15:00 +12°C° 0 mm 2 mps 746 mmHg 63%
    16:00 +12°C° 0 mm 1 mps 746 mmHg 64%
    17:00 +11°C° 0 mm 1 mps 746 mmHg 68%
    18:00 +10°C° 0 mm 1 mps 746 mmHg 72%
    19:00 +9°C° 0 mm 1 mps 746 mmHg 76%
    20:00 +8°C° 0 mm 1 mps 746 mmHg 78%
    21:00 +8°C° 0 mm 1 mps 746 mmHg 80%
    22:00 +7°C° 0 mm 1 mps 746 mmHg 82%
    23:00 +7°C° 0 mm 1 mps 746 mmHg 83%

    Tomorrow, 22 October, Monday

    Time Temperature Precipitation Wind Pressure Humidity
    00:00 +7°C° 0 mm 1 mps 746 mmHg 84%
    01:00 +5°C° 0 mm 0 mps 746 mmHg 85%
    02:00 +6°C° 0 mm 1 mps 746 mmHg 86%
    03:00 +6°C° 0 mm 1 mps 745 mmHg 87%
    04:00 +6°C° 0 mm 1 mps 745 mmHg 87%
    05:00 +6°C° 0 mm 1 mps 745 mmHg 87%
    06:00 +6°C° 0 mm 1 mps 745 mmHg 86%
    07:00 +5°C° 0 mm 0 mps 745 mmHg 86%
    08:00 +8°C° 0 mm 1 mps 745 mmHg 78%
    09:00 +10°C° 0 mm 1 mps 745 mmHg 69%
    10:00 +11°C° 0 mm 1 mps 745 mmHg 61%
    11:00 +12°C° 0 mm 1 mps 745 mmHg 57%
    12:00 +13°C° 0 mm 1 mps 744 mmHg 54%
    13:00 +14°C° 0 mm 2 mps 744 mmHg 51%
    14:00 +13°C° 0 mm 2 mps 743 mmHg 53%
    15:00 +13°C° 0 mm 2 mps 743 mmHg 55%
    16:00 +12°C° 0 mm 2 mps 743 mmHg 57%
    17:00 +10°C° 0 mm 2 mps 743 mmHg 60%
    18:00 +9°C° 0 mm 2 mps 743 mmHg 64%
    19:00 +9°C° 0 mm 2 mps 743 mmHg 67%
    20:00 +9°C° 0.2 mm 3 mps 743 mmHg 71%
    21:00 +9°C° 0.2 mm 3 mps 743 mmHg 75%
    22:00 +8°C° 0.2 mm 4 mps 744 mmHg 79%
    23:00 +7°C° 0.2 mm 4 mps 743 mmHg 80%

    Day after tomorrow, 23 October, Tuesday

    Time Temperature Precipitation Wind Pressure Humidity
    00:00 +7°C° 0.2 mm 4 mps 743 mmHg 81%
    01:00 +7°C° 0.2 mm 4 mps 743 mmHg 82%
    02:00 +6°C° 0 mm 4 mps 743 mmHg 84%
    03:00 +5°C° 0 mm 4 mps 743 mmHg 86%
    04:00 +4°C° 0 mm 3 mps 743 mmHg 88%
    05:00 +4°C° 0 mm 3 mps 743 mmHg 89%
    06:00 +3°C° 0 mm 4 mps 742 mmHg 89%
    07:00 +3°C° 0 mm 4 mps 742 mmHg 90%
    08:00 +4°C° 0 mm 4 mps 742 mmHg 82%
    09:00 +5°C° 0 mm 5 mps 741 mmHg 75%
    10:00 +5°C° 0 mm 6 mps 741 mmHg 67%
    11:00 +5°C° 0.3 mm 6 mps 740 mmHg 67%
    12:00 +6°C° 0.3 mm 7 mps 739 mmHg 66%
    13:00 +6°C° 0.3 mm 7 mps 738 mmHg 66%
    14:00 +6°C° 0.2 mm 8 mps 737 mmHg 67%
    15:00 +6°C° 0.2 mm 8 mps 736 mmHg 68%
    16:00 +6°C° 0.2 mm 8 mps 735 mmHg 70%
    17:00 +5°C° 1.1 mm 9 mps 734 mmHg 73%
    18:00 +5°C° 1.1 mm 9 mps 733 mmHg 77%
    19:00 +5°C° 1.1 mm 9 mps 732 mmHg 80%
    20:00 +6°C° 1 mm 10 mps 730 mmHg 81%
    21:00 +6°C° 1 mm 10 mps 729 mmHg 81%
    22:00 +7°C° 1 mm 11 mps 728 mmHg 81%
    23:00 +7°C° 1.1 mm 11 mps 727 mmHg 81%

    24 October, Wednesday

    Time Temperature Precipitation Wind Pressure Humidity
    00:00 +8°C° 1.1 mm 11 mps 727 mmHg 82%
    01:00 +8°C° 1.1 mm 11 mps 726 mmHg 82%
    02:00 +8°C° 1.2 mm 11 mps 725 mmHg 79%
    03:00 +7°C° 1.2 mm 10 mps 725 mmHg 76%
    04:00 +7°C° 1.2 mm 10 mps 725 mmHg 73%
    05:00 +6°C° 0.3 mm 10 mps 726 mmHg 71%
    06:00 +5°C° 0.3 mm 10 mps 727 mmHg 68%
    07:00 +2°C° 0.3 mm 10 mps 728 mmHg 65%
    08:00 +3°C° 0.1 mm 10 mps 728 mmHg 60%
    09:00 +3°C° 0.1 mm 11 mps 729 mmHg 54%
    10:00 +3°C° 0.1 mm 11 mps 730 mmHg 49%
    11:00 +4°C° 0 mm 11 mps 730 mmHg 48%
    12:00 +4°C° 0 mm 11 mps 730 mmHg 47%
    13:00 +4°C° 0 mm 11 mps 730 mmHg 46%
    14:00 +4°C° 0 mm 11 mps 731 mmHg 47%
    15:00 +5°C° 0 mm 10 mps 731 mmHg 48%
    16:00 +5°C° 0 mm 9 mps 732 mmHg 48%
    17:00 +3°C° 0 mm 9 mps 732 mmHg 50%
    18:00 +3°C° 0 mm 9 mps 733 mmHg 52%
    19:00 +2°C° 0 mm 8 mps 733 mmHg 54%
    20:00 +2°C° 0 mm 8 mps 734 mmHg 56%
    21:00 +2°C° 0 mm 7 mps 734 mmHg 58%
    22:00 +2°C° 0 mm 7 mps 735 mmHg 61%
    23:00 +2°C° 0 mm 6 mps 735 mmHg 63%

    25 October, Thursday

    Time Temperature Precipitation Wind Pressure Humidity
    00:00 +2°C° 0 mm 6 mps 735 mmHg 65%
    01:00 +1°C° 0 mm 6 mps 735 mmHg 68%
    02:00 +1°C° 0 mm 6 mps 735 mmHg 70%
    03:00 +1°C° 0 mm 5 mps 735 mmHg 72%
    04:00 +1°C° 0 mm 5 mps 735 mmHg 75%
    05:00 +1°C° 0.1 mm 5 mps 735 mmHg 77%
    06:00 +2°C° 0.1 mm 5 mps 735 mmHg 80%
    07:00 +2°C° 0.1 mm 5 mps 734 mmHg 82%
    08:00 +3°C° 0.7 mm 6 mps 734 mmHg 84%
    09:00 +4°C° 0.7 mm 7 mps 733 mmHg 86%
    10:00 +5°C° 0.7 mm 7 mps 733 mmHg 88%
    11:00 +6°C° 0.5 mm 8 mps 732 mmHg 85%
    12:00 +7°C° 0.5 mm 8 mps 732 mmHg 82%
    13:00 +8°C° 0.5 mm 9 mps 731 mmHg 78%
    14:00 +9°C° 0.1 mm 8 mps 732 mmHg 80%
    15:00 +9°C° 0.1 mm 8 mps 732 mmHg 81%
    16:00 +9°C° 0.1 mm 8 mps 732 mmHg 82%
    17:00 +9°C° 0.1 mm 8 mps 732 mmHg 82%
    18:00 +9°C° 0.1 mm 8 mps 732 mmHg 83%
    19:00 +9°C° 0.1 mm 8 mps 733 mmHg 84%
    20:00 +8°C° 0.2 mm 7 mps 733 mmHg 83%
    21:00 +8°C° 0.2 mm 7 mps 733 mmHg 82%
    22:00 +8°C° 0.2 mm 7 mps 733 mmHg 81%
    23:00 +8°C° 0.1 mm 6 mps 733 mmHg 83%

    26 October, Friday

    Time Temperature Precipitation Wind Pressure Humidity
    00:00 +8°C° 0.1 mm 6 mps 733 mmHg 85%
    01:00 +8°C° 0.1 mm 6 mps 734 mmHg 87%
    02:00 +8°C° 0.1 mm 6 mps 734 mmHg 87%
    03:00 +8°C° 0.1 mm 6 mps 734 mmHg 87%
    04:00 +8°C° 0.1 mm 6 mps 734 mmHg 87%
    05:00 +8°C° 0 mm 6 mps 734 mmHg 87%
    06:00 +7°C° 0 mm 5 mps 734 mmHg 88%
    07:00 +7°C° 0 mm 5 mps 734 mmHg 88%
    08:00 +8°C° 0 mm 5 mps 734 mmHg 85%
    09:00 +8°C° 0 mm 5 mps 734 mmHg 81%
    10:00 +9°C° 0 mm 5 mps 734 mmHg 78%
    11:00 +11°C° 0 mm 4 mps 734 mmHg 73%
    12:00 +12°C° 0 mm 4 mps 734 mmHg 68%
    13:00 +13°C° 0 mm 4 mps 733 mmHg 63%
    14:00 +12°C° 0 mm 4 mps 733 mmHg 65%
    15:00 +12°C° 0 mm 3 mps 732 mmHg 67%
    16:00 +11°C° 0 mm 3 mps 732 mmHg 69%
    17:00 +10°C° 0 mm 3 mps 732 mmHg 72%
    18:00 +9°C° 0 mm 3 mps 731 mmHg 76%
    19:00 +9°C° 0 mm 3 mps 731 mmHg 79%
    20:00 +8°C° 0 mm 3 mps 731 mmHg 81%
    21:00 +8°C° 0 mm 3 mps 730 mmHg 83%
    22:00 +8°C° 0 mm 3 mps 730 mmHg 84%
    23:00 +8°C° 0 mm 3 mps 730 mmHg 85%
    Show more